Time,TemperatureF,DewpointF,PressureIn,WindDirection,WindDirectionDegrees,WindSpeedMPH,WindSpeedGustMPH,Humidity,HourlyPrecipIn,Conditions,Clouds,dailyrainin,SoftwareType,DateUTC
2013-01-20 00:03:00,32.1,31.0,29.48,West,264,6.0,11.0,96,0.00,,,0.01,weatherlink.com 1.10,2013-01-20 05:03:00,
2013-01-20 00:18:00,32.3,31.0,29.47,WSW,256,8.0,10.0,96,0.00,,,0.01,weatherlink.com 1.10,2013-01-20 05:18:00,
2013-01-20 00:34:00,32.4,31.0,29.47,WSW,248,7.0,8.0,96,0.00,,,0.01,weatherlink.com 1.10,2013-01-20 05:34:00,
2013-01-20 00:48:00,32.6,32.0,29.47,West,264,5.0,10.0,96,0.00,,,0.01,weatherlink.com 1.10,2013-01-20 05:48:00,
2013-01-20 01:03:00,33.0,32.0,29.47,West,280,13.0,24.0,94,0.00,,,0.01,weatherlink.com 1.10,2013-01-20 06:03:00,
2013-01-20 01:19:00,33.1,31.0,29.50,WNW,290,23.0,23.0,90,0.00,,,0.01,weatherlink.com 1.10,2013-01-20 06:19:00,
2013-01-20 01:34:00,29.9,28.0,29.52,WNW,291,18.0,52.0,94,0.00,,,0.01,weatherlink.com 1.10,2013-01-20 06:34:00,
2013-01-20 01:49:00,29.8,28.0,29.53,WNW,301,23.0,30.0,93,0.00,,,0.01,weatherlink.com 1.10,2013-01-20 06:49:00,
2013-01-20 02:04:00,28.9,26.0,29.54,West,281,18.0,41.0,87,0.00,,,0.01,weatherlink.com 1.10,2013-01-20 07:04:00,
2013-01-20 02:19:00,28.1,24.0,29.55,WNW,291,17.0,30.0,83,0.00,,,0.01,weatherlink.com 1.10,2013-01-20 07:19:00,
2013-01-20 02:34:00,27.6,23.0,29.58,WSW,241,23.0,33.0,81,0.00,,,0.01,weatherlink.com 1.10,2013-01-20 07:34:00,
2013-01-20 02:49:00,25.7,24.0,29.61,WNW,287,15.0,34.0,92,0.00,,,0.01,weatherlink.com 1.10,2013-01-20 07:49:00,
2013-01-20 03:04:00,25.6,22.0,29.63,WNW,293,27.0,44.0,87,0.00,,,0.01,weatherlink.com 1.10,2013-01-20 08:04:00,
2013-01-20 03:19:00,25.4,21.0,29.66,WNW,288,14.0,29.0,83,0.00,,,0.01,weatherlink.com 1.10,2013-01-20 08:19:00,
2013-01-20 03:34:00,23.2,20.0,29.69,WNW,290,31.0,37.0,88,0.00,,,0.01,weatherlink.com 1.10,2013-01-20 08:34:00,
2013-01-20 03:49:00,21.6,19.0,29.70,NW,307,14.0,30.0,91,0.00,,,0.01,weatherlink.com 1.10,2013-01-20 08:49:00,
2013-01-20 04:04:00,21.2,18.0,29.72,WNW,302,18.0,30.0,88,0.00,,,0.01,weatherlink.com 1.10,2013-01-20 09:04:00,
2013-01-20 04:19:00,20.6,15.0,29.74,WNW,302,21.0,33.0,78,0.00,,,0.01,weatherlink.com 1.10,2013-01-20 09:19:00,
2013-01-20 04:34:00,20.1,13.0,29.76,NW,312,22.0,34.0,75,0.00,,,0.01,weatherlink.com 1.10,2013-01-20 09:34:00,
2013-01-20 04:49:00,19.5,12.0,29.77,WNW,302,10.0,34.0,72,0.00,,,0.01,weatherlink.com 1.10,2013-01-20 09:49:00,
2013-01-20 05:04:00,19.2,13.0,29.79,WNW,297,16.0,31.0,75,0.00,,,0.01,weatherlink.com 1.10,2013-01-20 10:04:00,
2013-01-20 05:19:00,18.4,15.0,29.80,WNW,296,23.0,31.0,85,0.00,,,0.01,weatherlink.com 1.10,2013-01-20 10:19:00,
2013-01-20 05:34:00,17.8,13.0,29.81,WNW,300,27.0,40.0,80,0.00,,,0.01,weatherlink.com 1.10,2013-01-20 10:34:00,
2013-01-20 05:49:00,17.0,10.0,29.83,WNW,302,21.0,40.0,75,0.00,,,0.01,weatherlink.com 1.10,2013-01-20 10:49:00,
2013-01-20 06:04:00,16.4,9.0,29.85,WNW,294,24.0,33.0,74,0.00,,,0.01,weatherlink.com 1.10,2013-01-20 11:04:00,
2013-01-20 06:20:00,15.8,9.0,29.87,NW,311,13.0,33.0,74,0.00,,,0.00,weatherlink.com 1.10,2013-01-20 11:20:00,
2013-01-20 06:35:00,15.3,7.0,29.87,WNW,291,28.0,33.0,71,0.00,,,0.00,weatherlink.com 1.10,2013-01-20 11:35:00,
2013-01-20 06:50:00,14.9,7.0,29.89,West,264,24.0,32.0,71,0.00,,,0.00,weatherlink.com 1.10,2013-01-20 11:50:00,
2013-01-20 07:05:00,14.7,7.0,29.90,WNW,291,19.0,27.0,72,0.00,,,0.00,weatherlink.com 1.10,2013-01-20 12:05:00,
2013-01-20 07:20:00,14.5,7.0,29.91,West,280,14.0,29.0,73,0.00,,,0.00,weatherlink.com 1.10,2013-01-20 12:20:00,
2013-01-20 07:35:00,14.5,8.0,29.92,WSW,250,11.0,25.0,74,0.00,,,0.00,weatherlink.com 1.10,2013-01-20 12:35:00,
2013-01-20 07:50:00,14.4,8.0,29.93,WNW,294,14.0,30.0,74,0.00,,,0.00,weatherlink.com 1.10,2013-01-20 12:50:00,
2013-01-20 08:05:00,14.4,8.0,29.94,West,262,8.0,25.0,74,0.00,,,0.00,weatherlink.com 1.10,2013-01-20 13:05:00,
2013-01-20 08:20:00,14.4,8.0,29.96,West,269,16.0,24.0,75,0.00,,,0.00,weatherlink.com 1.10,2013-01-20 13:20:00,
2013-01-20 08:35:00,14.8,9.0,29.99,West,270,8.0,22.0,76,0.00,,,0.00,weatherlink.com 1.10,2013-01-20 13:35:00,
2013-01-20 08:50:00,14.8,9.0,30.00,West,263,16.0,24.0,76,0.00,,,0.00,weatherlink.com 1.10,2013-01-20 13:50:00,
2013-01-20 09:05:00,15.2,9.0,30.02,West,259,8.0,20.0,76,0.00,,,0.00,weatherlink.com 1.10,2013-01-20 14:05:00,
2013-01-20 09:20:00,15.1,9.0,30.03,WNW,287,8.0,22.0,77,0.00,,,0.00,weatherlink.com 1.10,2013-01-20 14:20:00,
2013-01-20 09:36:00,15.9,10.0,30.04,WSW,253,10.0,23.0,77,0.00,,,0.00,weatherlink.com 1.10,2013-01-20 14:36:00,
2013-01-20 09:51:00,16.4,10.0,30.05,SW,231,14.0,25.0,76,0.00,,,0.00,weatherlink.com 1.10,2013-01-20 14:51:00,
2013-01-20 10:06:00,17.0,9.0,30.06,WNW,297,19.0,29.0,72,0.00,,,0.00,weatherlink.com 1.10,2013-01-20 15:06:00,
2013-01-20 10:21:00,17.7,10.0,30.07,WNW,295,23.0,28.0,73,0.00,,,0.00,weatherlink.com 1.10,2013-01-20 15:21:00,
2013-01-20 10:36:00,18.0,10.0,30.07,WNW,300,14.0,25.0,71,0.00,,,0.00,weatherlink.com 1.10,2013-01-20 15:36:00,
2013-01-20 10:51:00,18.1,10.0,30.07,WNW,300,8.0,27.0,71,0.00,,,0.00,weatherlink.com 1.10,2013-01-20 15:51:00,
2013-01-20 11:06:00,18.5,10.0,30.07,WNW,302,8.0,28.0,69,0.00,,,0.00,weatherlink.com 1.10,2013-01-20 16:06:00,
2013-01-20 11:21:00,18.4,9.0,30.08,WNW,283,17.0,33.0,68,0.00,,,0.00,weatherlink.com 1.10,2013-01-20 16:21:00,
2013-01-20 11:36:00,18.6,9.0,30.09,WNW,282,21.0,25.0,67,0.00,,,0.00,weatherlink.com 1.10,2013-01-20 16:36:00,
2013-01-20 11:51:00,18.3,9.0,30.10,NW,308,11.0,26.0,68,0.00,,,0.00,weatherlink.com 1.10,2013-01-20 16:51:00,
2013-01-20 12:06:00,18.5,10.0,30.10,WNW,300,10.0,24.0,68,0.00,,,0.00,weatherlink.com 1.10,2013-01-20 17:06:00,
2013-01-20 12:21:00,18.5,8.0,30.10,WNW,294,12.0,30.0,63,0.00,,,0.00,weatherlink.com 1.10,2013-01-20 17:21:00,
2013-01-20 12:36:00,17.9,9.0,30.10,NNW,333,6.0,27.0,67,0.00,,,0.00,weatherlink.com 1.10,2013-01-20 17:36:00,
2013-01-20 12:51:00,17.9,9.0,30.10,WNW,286,7.0,21.0,67,0.00,,,0.00,weatherlink.com 1.10,2013-01-20 17:51:00,
2013-01-20 13:07:00,17.6,10.0,30.10,WNW,297,12.0,19.0,71,0.00,,,0.00,weatherlink.com 1.10,2013-01-20 18:07:00,
2013-01-20 13:22:00,17.7,8.0,30.10,WNW,299,11.0,17.0,66,0.00,,,0.00,weatherlink.com 1.10,2013-01-20 18:22:00,
2013-01-20 13:37:00,17.8,7.0,30.10,WNW,285,5.0,19.0,64,0.00,,,0.00,weatherlink.com 1.10,2013-01-20 18:37:00,
2013-01-20 13:52:00,17.7,7.0,30.10,ENE,62,16.0,22.0,63,0.00,,,0.00,weatherlink.com 1.10,2013-01-20 18:52:00,
2013-01-20 14:07:00,17.4,6.0,30.11,WNW,288,9.0,22.0,62,0.00,,,0.00,weatherlink.com 1.10,2013-01-20 19:07:00,
2013-01-20 14:22:00,17.2,5.0,30.11,WNW,287,12.0,24.0,60,0.00,,,0.00,weatherlink.com 1.10,2013-01-20 19:22:00,
2013-01-20 14:37:00,17.4,5.0,30.11,NW,312,10.0,21.0,59,0.00,,,0.00,weatherlink.com 1.10,2013-01-20 19:37:00,
2013-01-20 14:52:00,17.2,5.0,30.12,West,270,13.0,26.0,59,0.00,,,0.00,weatherlink.com 1.10,2013-01-20 19:52:00,
2013-01-20 15:07:00,17.2,6.0,30.13,NW,307,10.0,24.0,62,0.00,,,0.00,weatherlink.com 1.10,2013-01-20 20:07:00,
2013-01-20 15:22:00,17.1,5.0,30.13,WNW,301,17.0,24.0,60,0.00,,,0.00,weatherlink.com 1.10,2013-01-20 20:22:00,
2013-01-20 15:37:00,17.1,5.0,30.13,WNW,298,12.0,21.0,60,0.00,,,0.00,weatherlink.com 1.10,2013-01-20 20:37:00,
2013-01-20 15:52:00,17.0,7.0,30.14,WNW,283,11.0,20.0,64,0.00,,,0.00,weatherlink.com 1.10,2013-01-20 20:52:00,
2013-01-20 16:07:00,16.9,8.0,30.14,WNW,294,9.0,17.0,68,0.00,,,0.00,weatherlink.com 1.10,2013-01-20 21:07:00,
2013-01-20 16:23:00,16.6,7.0,30.14,NW,304,7.0,22.0,67,0.00,,,0.00,weatherlink.com 1.10,2013-01-20 21:23:00,
2013-01-20 16:38:00,16.6,6.0,30.14,WNW,297,10.0,17.0,64,0.00,,,0.00,weatherlink.com 1.10,2013-01-20 21:38:00,
2013-01-20 16:53:00,16.0,8.0,30.15,WSW,250,14.0,18.0,71,0.00,,,0.00,weatherlink.com 1.10,2013-01-20 21:53:00,
2013-01-20 17:08:00,16.0,7.0,30.15,WNW,297,7.0,18.0,67,0.00,,,0.00,weatherlink.com 1.10,2013-01-20 22:08:00,
2013-01-20 17:23:00,16.0,6.0,30.16,WNW,295,6.0,13.0,66,0.00,,,0.00,weatherlink.com 1.10,2013-01-20 22:23:00,
2013-01-20 17:38:00,16.1,7.0,30.16,WNW,284,10.0,11.0,67,0.00,,,0.00,weatherlink.com 1.10,2013-01-20 22:38:00,
2013-01-20 17:53:00,15.8,8.0,30.16,WNW,295,6.0,8.0,70,0.00,,,0.00,weatherlink.com 1.10,2013-01-20 22:53:00,
2013-01-20 18:08:00,15.8,7.0,30.17,WNW,296,7.0,15.0,67,0.00,,,0.00,weatherlink.com 1.10,2013-01-20 23:08:00,
2013-01-20 18:23:00,15.7,7.0,30.17,WNW,288,6.0,18.0,68,0.00,,,0.00,weatherlink.com 1.10,2013-01-20 23:23:00,
2013-01-20 18:38:00,15.5,7.0,30.17,NW,304,11.0,14.0,69,0.00,,,0.00,weatherlink.com 1.10,2013-01-20 23:38:00,
2013-01-20 18:53:00,15.4,8.0,30.17,WNW,301,7.0,14.0,71,0.00,,,0.00,weatherlink.com 1.10,2013-01-20 23:53:00,
2013-01-20 19:08:00,15.4,8.0,30.17,West,280,6.0,12.0,72,0.00,,,0.00,weatherlink.com 1.10,2013-01-21 00:08:00,
2013-01-20 19:23:00,15.1,7.0,30.18,WNW,300,10.0,11.0,70,0.00,,,0.00,weatherlink.com 1.10,2013-01-21 00:23:00,
2013-01-20 19:38:00,14.9,7.0,30.18,WSW,251,5.0,14.0,71,0.00,,,0.00,weatherlink.com 1.10,2013-01-21 00:38:00,
2013-01-20 19:54:00,14.7,7.0,30.18,WNW,290,10.0,14.0,71,0.00,,,0.00,weatherlink.com 1.10,2013-01-21 00:54:00,
2013-01-20 20:09:00,14.5,6.0,30.18,WNW,298,9.0,16.0,68,0.00,,,0.00,weatherlink.com 1.10,2013-01-21 01:09:00,
2013-01-20 20:24:00,14.5,4.0,30.18,WNW,292,10.0,18.0,64,0.00,,,0.00,weatherlink.com 1.10,2013-01-21 01:24:00,
2013-01-20 20:39:00,14.3,4.0,30.18,WNW,301,8.0,14.0,65,0.00,,,0.00,weatherlink.com 1.10,2013-01-21 01:39:00,
2013-01-20 20:54:00,13.8,4.0,30.18,West,278,5.0,14.0,65,0.00,,,0.00,weatherlink.com 1.10,2013-01-21 01:54:00,
2013-01-20 21:09:00,13.3,4.0,30.18,NW,315,5.0,12.0,66,0.00,,,0.00,weatherlink.com 1.10,2013-01-21 02:09:00,
2013-01-20 21:24:00,12.9,4.0,30.18,WNW,291,4.0,10.0,68,0.00,,,0.00,weatherlink.com 1.10,2013-01-21 02:24:00,
2013-01-20 21:39:00,12.5,4.0,30.18,WNW,297,7.0,9.0,70,0.00,,,0.00,weatherlink.com 1.10,2013-01-21 02:39:00,
2013-01-20 21:54:00,12.2,4.0,30.18,West,271,7.0,8.0,70,0.00,,,0.00,weatherlink.com 1.10,2013-01-21 02:54:00,
2013-01-20 22:09:00,11.7,4.0,30.18,West,259,3.0,7.0,71,0.00,,,0.00,weatherlink.com 1.10,2013-01-21 03:09:00,
2013-01-20 22:24:00,11.6,4.0,30.17,West,263,6.0,8.0,72,0.00,,,0.00,weatherlink.com 1.10,2013-01-21 03:24:00,
2013-01-20 22:39:00,11.9,5.0,30.17,West,264,7.0,11.0,72,0.00,,,0.00,weatherlink.com 1.10,2013-01-21 03:39:00,
2013-01-20 22:54:00,11.8,5.0,30.17,WNW,282,3.0,9.0,73,0.00,,,0.00,weatherlink.com 1.10,2013-01-21 03:54:00,
2013-01-20 23:10:00,11.5,5.0,30.16,WSW,246,4.0,5.0,75,0.00,,,0.00,weatherlink.com 1.10,2013-01-21 04:10:00,
2013-01-20 23:25:00,11.2,5.0,30.16,WSW,255,3.0,5.0,76,0.00,,,0.00,weatherlink.com 1.10,2013-01-21 04:25:00,
2013-01-20 23:40:00,11.2,5.0,30.16,WNW,282,4.0,7.0,77,0.00,,,0.00,weatherlink.com 1.10,2013-01-21 04:40:00,
2013-01-20 23:55:00,11.4,5.0,30.15,West,267,3.0,6.0,76,0.00,,,0.00,weatherlink.com 1.10,2013-01-21 04:55:00,